2021-059CR (49048 NORAD) Tracking and Keplerian Element Data

This shows tracking and keplerian element data for the satellite.

Feedback or suggestion? Click here.




ElementValue
Catalog49048
Name2021-059CR
Epoch Orbit496
Epoch Day209.63804101
Epoch Year2021
RAAN337.988
Inclination97.5047
Eccentricity0.0010379
Argument of Perigee124.8453
Mean Anonmoly235.3756
Mean Motion15.13131325
Decay Rate1.019E-05
L11 49048U 21059CR 21209.63804101 .00001019 00000-0 61137-4 0 9992
L22 49048 97.5047 337.9880 0010379 124.8453 235.3756 15.13131325 4969

Live tracking and technical data element details for 2021-059CR (NORAD 49048). 2021-059CR can be tracked NOW for your location showing map with azimuth and elevation plus other details from your city location.

Track the satellite on the map from your city or location and see movement details for azimuth, elevation, latitude, longitude, range, height, and movement on the map or in text.







IsCatalogInMostPopularTable: catalog: 49048, numindb: 14
Update: records affected: 1



GetName: 49048 2021-059CR

Hit Count: updated at: Sun, 26 Sep 2021 15:17:01 GMT